Volver al catálogo

STARLINK-34663

ActivoComunicacionesVLEO
NORAD 64807·PAYLOAD·🇺🇸 United States

Lanzado Jul 16, 2025 desde Vandenberg Space Force Base

Loading…

Próximos Pases (próximas 24 horas)

TLE

ActualizadoSource: CelesTrak SupGP

Época: Sep 14, 2026, 22:36 UTC

1 64807C 25150T   26257.94215278 -.00051158  00000+0 -42875-2 0  2574
2 64807  70.0025  17.3194 0003455 270.6312 106.0486 14.98353258    18

Sigue STARLINK-34663 en tiempo real con AllMySat

Download on the App Store